[[{"header":{"parameterUnit":"m.s-1","parameterCategory":1,"la1":30.2992,"la2":30.254,"lo1":-89.0895,"lo2":-89.0443,"dy":0.0025,"dx":0.0025,"nx":19,"ny":19,"refTime":"2026-03-26T21:00:00:Z","depth":0,"parameterNumber":2,"parameterNumberName":"U-component_of_WINDS"},"data":[0,0,0,-2.058,-2.0581,-2.0634,-2.0634,-2.0704,-2.0705,0,0,0,0,0,0,0,0,0,0,0,-2.0566,-2.0567,-2.058,-2.0581,-2.0634,-2.0634,-2.0704,-2.0705,0,0,0,0,0,0,0,0,0,0,0,-2.0566,-2.0567,-2.0568,-2.0581,-2.0634,-2.0634,-2.0704,-2.0663,0,0,0,0,0,0,0,0,0,0,-2.0611,-2.0601,-2.0567,-2.0568,-2.0582,-2.0634,-2.0634,-2.0661,-2.0665,-2.0681,0,-2.0697,0,-2.0702,-2.0709,-2.071,0,0,0,-2.0579,-2.0597,-2.0609,-2.0568,-2.0582,-2.0634,-2.061,-2.0663,-2.0668,-2.0687,-2.0698,-2.07,-2.0703,-2.071,-2.071,-2.0811,-2.0812,0,0,-2.0576,-2.0577,-2.0606,-2.0613,-2.0606,-2.0608,-2.0611,-2.0666,-2.0677,-2.0698,-2.0702,-2.0704,-2.071,-2.0711,-2.0811,-2.0811,0,0,0,-2.0569,-2.0575,-2.0586,-2.061,-2.062,-2.0609,-2.0613,-2.0675,-2.0679,-2.0703,-2.0705,-2.0711,-2.0712,-2.081,-2.0811,-2.084,0,0,0,-2.0567,-2.0571,-2.0585,-2.0586,-2.0619,-2.0648,-2.0621,-2.0675,-2.0681,-2.0705,-2.0711,-2.0712,-2.0809,-2.081,-2.0838,-2.0854,0,0,0,-2.0562,-2.057,-2.0579,-2.0586,-2.0609,-2.0647,-2.0654,-2.0676,-2.0683,-2.071,-2.0713,-2.0809,-2.081,-2.0836,-2.0851,-2.0881,0,0,0,-2.0557,-2.0604,-2.0579,-2.0633,-2.0608,-2.0665,-2.0654,-2.0696,-2.0723,-2.0711,-2.0809,-2.0811,-2.0836,-2.0849,-2.0879,-2.0907,-2.0919,0,0,-2.0616,-2.0611,-2.0642,-2.0622,-2.0684,-2.0657,-2.0723,-2.0746,-2.0747,-2.0789,-2.0792,-2.0839,-2.0851,-2.0881,-2.0984,-2.0993,0,0,0,-2.0661,-2.0684,-2.07,-2.0726,-2.0746,-2.0764,-2.0777,-2.0785,-2.0821,-2.077,-2.0858,-2.0865,-2.0882,-2.0896,-2.0904,-2.0919,-2.0817,-2.0817,-2.0817,-2.0747,-2.0747,-2.0799,-2.0805,-2.083,-2.0844,-2.0864,-2.0877,-2.0869,-2.089,-2.0902,-2.0965,-2.0981,-2.0987,-2.1002,-2.0917,-2.0917,-2.0917,-2.0917,-2.0835,-2.0867,-2.0856,-2.0902,-2.0901,-2.0939,-2.0953,-2.0946,-2.0981,-2.0955,-2.0971,-2.0944,-2.0997,-2.1011,-2.0919,-2.0919,-2.0919,-2.0918,-2.0918,-2.0892,-2.0907,-2.0917,-2.0955,-2.0984,-2.0988,-2.1022,-2.102,-2.1017,-2.1033,-2.1046,-2.1045,-2.1045,-2.1039,-2.1039,-2.104,-2.104,-2.104,-2.104,-2.0947,-2.0958,-2.0988,-2.1012,-2.1029,-2.105,-2.1063,-2.1079,-2.1095,-2.1091,-2.1091,-2.108,-2.1002,-2.0983,-2.1043,-2.1043,-2.1042,-2.1042,-2.1042,-2.1037,-2.1017,-2.1063,-2.108,-2.1108,-2.1137,-2.1133,-2.1165,-2.1178,-2.1194,-2.1181,-2.1123,-2.1117,-2.1111,-2.1095,-2.1181,-2.118,-2.1181,-2.1181,-2.1086,-2.1082,-2.1129,-2.1156,-2.1182,-2.1183,-2.1234,-2.1245,-2.1252,-2.1259,-2.1246,-2.1225,-2.1218,-2.1216,-2.1207,-2.1192,-2.1301,-2.1301,-2.1301,-2.1141,-2.114,-2.1185,-2.1193,-2.1215,-2.1234,-2.1282,-2.1312,-2.1316,-2.1306,-2.1265,-2.126,-2.1225,-2.1214,-2.1204,-2.119,-2.1163,0,0]},{"header":{"parameterUnit":"m.s-1","parameterCategory":1,"la1":30.2992,"la2":30.254,"lo1":-89.0895,"lo2":-89.0443,"dy":0.0025,"dx":0.0025,"nx":19,"ny":19,"refTime":"2026-03-26T21:00:00:Z","depth":0,"parameterNumber":3,"parameterNumberName":"V-component_of_WINDS"},"data":[0,0,0,-7.0953,-7.0955,-7.1044,-7.1044,-7.1164,-7.1165,0,0,0,0,0,0,0,0,0,0,0,-7.0933,-7.0934,-7.0953,-7.0955,-7.1044,-7.1044,-7.1164,-7.1165,0,0,0,0,0,0,0,0,0,0,0,-7.0932,-7.0934,-7.0935,-7.0956,-7.1044,-7.1044,-7.1163,-7.1093,0,0,0,0,0,0,0,0,0,0,-7.1006,-7.0994,-7.0933,-7.0935,-7.0956,-7.1044,-7.1044,-7.109,-7.1098,-7.1127,0,-7.1157,0,-7.1163,-7.1174,-7.1174,0,0,0,-7.0949,-7.0987,-7.1006,-7.0935,-7.0957,-7.1044,-7.1002,-7.1094,-7.1103,-7.1138,-7.1159,-7.1163,-7.1165,-7.1174,-7.1175,-7.1371,-7.1372,0,0,-7.0945,-7.0951,-7.1,-7.1013,-7.1002,-7.0999,-7.1005,-7.11,-7.1122,-7.1159,-7.1166,-7.1167,-7.1175,-7.1176,-7.137,-7.1372,0,0,0,-7.0934,-7.0948,-7.0964,-7.1008,-7.1024,-7.1002,-7.1009,-7.1118,-7.1123,-7.1167,-7.1169,-7.1176,-7.1178,-7.1369,-7.1371,-7.1438,0,0,0,-7.0931,-7.0942,-7.0962,-7.0967,-7.1022,-7.1072,-7.1025,-7.1116,-7.1126,-7.1168,-7.1176,-7.1179,-7.1368,-7.137,-7.1434,-7.1469,0,0,0,-7.0925,-7.0941,-7.0957,-7.0967,-7.1006,-7.1071,-7.1081,-7.1118,-7.1128,-7.1174,-7.1179,-7.1367,-7.1369,-7.143,-7.1462,-7.1525,0,0,0,-7.0919,-7.1012,-7.0958,-7.1062,-7.1006,-7.1113,-7.108,-7.1158,-7.1206,-7.1177,-7.1368,-7.1371,-7.1428,-7.1458,-7.152,-7.158,-7.1605,0,0,-7.104,-7.1027,-7.1088,-7.1042,-7.1161,-7.1098,-7.1226,-7.1261,-7.1257,-7.1333,-7.1337,-7.1435,-7.1461,-7.1524,-7.1742,-7.1762,0,0,0,-7.1129,-7.1173,-7.1203,-7.1251,-7.1283,-7.1313,-7.1329,-7.1342,-7.1407,-7.1298,-7.1474,-7.1489,-7.1525,-7.1553,-7.1571,-7.1602,-7.1384,-7.1383,-7.1383,-7.1308,-7.1303,-7.1404,-7.141,-7.1457,-7.1474,-7.1511,-7.1531,-7.1507,-7.1549,-7.1572,-7.1706,-7.1739,-7.1752,-7.1784,-7.1602,-7.1602,-7.1602,-7.1602,-7.1487,-7.1549,-7.1521,-7.161,-7.1602,-7.1675,-7.1695,-7.1677,-7.1743,-7.1687,-7.1718,-7.1659,-7.1774,-7.1802,-7.1607,-7.1607,-7.1606,-7.1605,-7.1605,-7.1605,-7.1635,-7.1652,-7.1723,-7.1778,-7.1779,-7.1846,-7.1835,-7.1824,-7.1856,-7.188,-7.1879,-7.1877,-7.1868,-7.1868,-7.1869,-7.1869,-7.187,-7.187,-7.1722,-7.1739,-7.1799,-7.1844,-7.1875,-7.1914,-7.1934,-7.1963,-7.1992,-7.1979,-7.1979,-7.1953,-7.1787,-7.1746,-7.1877,-7.1876,-7.1875,-7.1874,-7.1874,-7.1907,-7.1864,-7.1956,-7.1988,-7.2041,-7.2097,-7.2083,-7.2145,-7.2167,-7.22,-7.2168,-7.2046,-7.2031,-7.2017,-7.1984,-7.2168,-7.2168,-7.2168,-7.2168,-7.2008,-7.2,-7.2094,-7.2146,-7.2195,-7.2193,-7.2296,-7.2313,-7.2322,-7.2336,-7.2307,-7.2261,-7.2248,-7.224,-7.2222,-7.219,-7.2424,-7.2424,-7.2424,-7.2122,-7.212,-7.2211,-7.2224,-7.2265,-7.23,-7.2397,-7.2456,-7.2457,-7.2434,-7.2347,-7.2336,-7.2262,-7.2237,-7.2212,-7.2184,-7.2126,0,0]}]]